Location: Newark
(54.9353°N, 24.1167°E)
Time: 11:48:33
(UTC+00:00)

Envisat - Pass Details

Date: 01 October 2020
Orbit: 764 x 766 km, 98.1° (Epoch: 26 October)

Event Time Altitude Azimuth Distance (km) Brightness Sun altitude
Rises 03:03:00 0° 26° (NNE) 3,246 6.8 -12.7°
Reaches altitude 10° 03:06:18 10° 48° (NE) 2,314 6.5 -12.3°
Maximum altitude 03:09:18 16° 85° (E) 1,945 6.4 -11.9°
Drops below altitude 10° 03:12:18 10° 121° (ESE) 2,303 6.2 -11.4°
Sets 03:15:34 0° 144° (SE) 3,223 6.6 -11.0°
